Location: Unspecified
(0.0000°N, 0.0000°E)
Time: 13:34:30
(UTC+00:00)

N. Korean satellite - Pass Details

Date: 02 April 2020
Orbit: 454 x 507 km, 97.2° (Epoch: 01 April)

Event Time Altitude Azimuth Distance (km) Brightness Sun altitude
Rises 04:57:40 0° 25° (NNE) 2,452 10.6 -16.4°
Reaches altitude 10° 04:59:48 10° 35° (NE) 1,584 9.7 -15.9°
Maximum altitude 05:02:54 33° 101° (E) 785 8.3 -15.1°
Drops below altitude 10° 05:06:02 10° 167° (SSE) 1,605 9.3 -14.3°
Sets 05:08:12 0° 176° (S) 2,489 10.2 -13.8°
